Year,Month,Day,Hour,Minute,Value (Times are PST for temperature in C)
2010,10,11,00,00,8.20
2010,10,11,00,01,8.20
2010,10,11,00,02,8.20
2010,10,11,00,03,8.30
2010,10,11,00,04,8.30
2010,10,11,00,05,8.30
2010,10,11,00,06,8.40
2010,10,11,00,07,8.40
2010,10,11,00,08,8.50
2010,10,11,00,09,8.50
2010,10,11,00,10,8.50
2010,10,11,00,11,8.50
2010,10,11,00,12,8.50
2010,10,11,00,13,8.50
2010,10,11,00,14,8.50
2010,10,11,00,15,8.50
2010,10,11,00,16,8.40
2010,10,11,00,17,8.40
2010,10,11,00,18,8.40
2010,10,11,00,19,8.30
2010,10,11,00,20,8.30
2010,10,11,00,21,8.30
2010,10,11,00,22,8.30
2010,10,11,00,23,8.30
2010,10,11,00,24,8.30
2010,10,11,00,25,8.30
2010,10,11,00,26,8.20
2010,10,11,00,27,8.20
2010,10,11,00,28,8.20
2010,10,11,00,29,8.20
2010,10,11,00,30,8.20
2010,10,11,00,31,8.20
2010,10,11,00,32,8.20
2010,10,11,00,33,8.20
2010,10,11,00,34,8.20
2010,10,11,00,35,8.20
2010,10,11,00,36,8.10
2010,10,11,00,37,8.10
2010,10,11,00,38,8.10
2010,10,11,00,39,8.10
2010,10,11,00,40,8.10
2010,10,11,00,41,8.10
2010,10,11,00,42,8.00
2010,10,11,00,43,8.00
2010,10,11,00,44,8.00
2010,10,11,00,45,8.00
2010,10,11,00,46,8.10
2010,10,11,00,47,8.10
2010,10,11,00,48,8.00
2010,10,11,00,49,8.00
2010,10,11,00,50,8.00
2010,10,11,00,51,8.00
2010,10,11,00,52,7.90
2010,10,11,00,53,7.90
2010,10,11,00,54,7.90
2010,10,11,00,55,7.80
2010,10,11,00,56,7.80
2010,10,11,00,57,7.80
2010,10,11,00,58,7.80
2010,10,11,00,59,7.80
2010,10,11,01,00,7.70
2010,10,11,01,01,7.70
2010,10,11,01,02,7.70
2010,10,11,01,03,7.70
2010,10,11,01,04,7.60
2010,10,11,01,05,7.60
2010,10,11,01,06,7.60
2010,10,11,01,07,7.60
2010,10,11,01,08,7.60
2010,10,11,01,09,7.60
2010,10,11,01,10,7.60
2010,10,11,01,11,7.60
2010,10,11,01,12,7.60
2010,10,11,01,13,7.60
2010,10,11,01,14,7.60
2010,10,11,01,15,7.60
2010,10,11,01,16,7.60
2010,10,11,01,17,7.60
2010,10,11,01,18,7.60
2010,10,11,01,19,7.70
2010,10,11,01,20,7.70
2010,10,11,01,21,7.70
2010,10,11,01,22,7.70
2010,10,11,01,23,7.70
2010,10,11,01,24,7.70
2010,10,11,01,25,7.70
2010,10,11,01,26,7.60
2010,10,11,01,27,7.60
2010,10,11,01,28,7.60
2010,10,11,01,29,7.50
2010,10,11,01,30,7.50
2010,10,11,01,31,7.50
2010,10,11,01,32,7.50
2010,10,11,01,33,7.50
2010,10,11,01,34,7.50
2010,10,11,01,35,7.50
2010,10,11,01,36,7.40
2010,10,11,01,37,7.40
2010,10,11,01,38,7.40
2010,10,11,01,39,7.40
2010,10,11,01,40,7.40
2010,10,11,01,41,7.40
2010,10,11,01,42,7.40
2010,10,11,01,43,7.40
2010,10,11,01,44,7.40
2010,10,11,01,45,7.30
2010,10,11,01,46,7.30
2010,10,11,01,47,7.30
2010,10,11,01,48,7.30
2010,10,11,01,49,7.30
2010,10,11,01,50,7.30
2010,10,11,01,51,7.20
2010,10,11,01,52,7.20
2010,10,11,01,53,7.20
2010,10,11,01,54,7.20
2010,10,11,01,55,7.20
2010,10,11,01,56,7.20
2010,10,11,01,57,7.20
2010,10,11,01,58,7.10
2010,10,11,01,59,7.10
2010,10,11,02,00,7.10
2010,10,11,02,01,7.10
2010,10,11,02,02,7.20
2010,10,11,02,03,7.20
2010,10,11,02,04,7.20
2010,10,11,02,05,7.20
2010,10,11,02,06,7.20
2010,10,11,02,07,7.10
2010,10,11,02,08,7.10
2010,10,11,02,09,7.10
2010,10,11,02,10,7.10
2010,10,11,02,11,7.00
2010,10,11,02,12,7.00
2010,10,11,02,13,7.00
2010,10,11,02,14,7.00
2010,10,11,02,15,7.00
2010,10,11,02,16,7.00
2010,10,11,02,17,7.00
2010,10,11,02,18,7.00
2010,10,11,02,19,6.90
2010,10,11,02,20,6.90
2010,10,11,02,21,6.90
2010,10,11,02,22,6.90
2010,10,11,02,23,6.90
2010,10,11,02,24,6.90
2010,10,11,02,25,6.90
2010,10,11,02,26,6.90
2010,10,11,02,27,6.80
2010,10,11,02,28,6.80
2010,10,11,02,29,6.80
2010,10,11,02,30,6.80
2010,10,11,02,31,6.80
2010,10,11,02,32,6.80
2010,10,11,02,33,6.80
2010,10,11,02,34,6.90
2010,10,11,02,35,6.90
2010,10,11,02,36,6.90
2010,10,11,02,37,6.90
2010,10,11,02,38,7.00
2010,10,11,02,39,7.00
2010,10,11,02,40,7.10
2010,10,11,02,41,7.10
2010,10,11,02,42,7.10
2010,10,11,02,43,7.10
2010,10,11,02,44,7.00
2010,10,11,02,45,7.00
2010,10,11,02,46,7.00
2010,10,11,02,47,6.90
2010,10,11,02,48,6.90
2010,10,11,02,49,6.90
2010,10,11,02,50,6.90
2010,10,11,02,51,6.80
2010,10,11,02,52,6.80
2010,10,11,02,53,6.80
2010,10,11,02,54,6.80
2010,10,11,02,55,6.80
2010,10,11,02,56,6.80
2010,10,11,02,57,6.80
2010,10,11,02,58,6.80
2010,10,11,02,59,6.80
2010,10,11,03,00,6.80
2010,10,11,03,01,6.80
2010,10,11,03,02,6.70
2010,10,11,03,03,6.70
2010,10,11,03,04,6.60
2010,10,11,03,05,6.60
2010,10,11,03,06,6.60
2010,10,11,03,07,6.60
2010,10,11,03,08,6.60
2010,10,11,03,09,6.60
2010,10,11,03,10,6.60
2010,10,11,03,11,6.60
2010,10,11,03,12,6.60
2010,10,11,03,13,6.60
2010,10,11,03,14,6.60
2010,10,11,03,15,6.60
2010,10,11,03,16,6.60
2010,10,11,03,17,6.60
2010,10,11,03,18,6.70
2010,10,11,03,19,6.70
2010,10,11,03,20,6.70
2010,10,11,03,21,6.70
2010,10,11,03,22,6.70
2010,10,11,03,23,6.70
2010,10,11,03,24,6.70
2010,10,11,03,25,6.70
2010,10,11,03,26,6.70
2010,10,11,03,27,6.70
2010,10,11,03,28,6.70
2010,10,11,03,29,6.80
2010,10,11,03,30,6.80
2010,10,11,03,31,6.80
2010,10,11,03,32,6.80
2010,10,11,03,33,6.80
2010,10,11,03,34,6.90
2010,10,11,03,35,6.90
2010,10,11,03,36,6.90
2010,10,11,03,37,6.90
2010,10,11,03,38,6.90
2010,10,11,03,39,6.90
2010,10,11,03,40,6.90
2010,10,11,03,41,6.90
2010,10,11,03,42,6.90
2010,10,11,03,43,6.90
2010,10,11,03,44,6.90
2010,10,11,03,45,6.80
2010,10,11,03,46,6.80
2010,10,11,03,47,6.90
2010,10,11,03,48,6.80
2010,10,11,03,49,6.80
2010,10,11,03,50,6.80
2010,10,11,03,51,6.80
2010,10,11,03,52,6.80
2010,10,11,03,53,6.70
2010,10,11,03,54,6.70
2010,10,11,03,55,6.70
2010,10,11,03,56,6.70
2010,10,11,03,57,6.60
2010,10,11,03,58,6.60
2010,10,11,03,59,6.60
2010,10,11,04,00,6.60
2010,10,11,04,01,6.60
2010,10,11,04,02,6.60
2010,10,11,04,03,6.60
2010,10,11,04,04,6.60
2010,10,11,04,05,6.60
2010,10,11,04,06,6.60
2010,10,11,04,07,6.60
2010,10,11,04,08,6.60
2010,10,11,04,09,6.60
2010,10,11,04,10,6.60
2010,10,11,04,11,6.60
2010,10,11,04,12,6.50
2010,10,11,04,13,6.40
2010,10,11,04,14,6.40
2010,10,11,04,15,6.40
2010,10,11,04,16,6.40
2010,10,11,04,17,6.40
2010,10,11,04,18,6.40
2010,10,11,04,19,6.40
2010,10,11,04,20,6.40
2010,10,11,04,21,6.30
2010,10,11,04,22,6.30
2010,10,11,04,23,6.20
2010,10,11,04,24,6.20
2010,10,11,04,25,6.20
2010,10,11,04,26,6.20
2010,10,11,04,27,6.20
2010,10,11,04,28,6.20
2010,10,11,04,29,6.20
2010,10,11,04,30,6.20
2010,10,11,04,31,6.20
2010,10,11,04,32,6.20
2010,10,11,04,33,6.20
2010,10,11,04,34,6.20
2010,10,11,04,35,6.20
2010,10,11,04,36,6.20
2010,10,11,04,37,6.20
2010,10,11,04,38,6.20
2010,10,11,04,39,6.20
2010,10,11,04,40,6.20
2010,10,11,04,41,6.20
2010,10,11,04,42,6.20
2010,10,11,04,43,6.20
2010,10,11,04,44,6.20
2010,10,11,04,45,6.20
2010,10,11,04,46,6.30
2010,10,11,04,47,6.30
2010,10,11,04,48,6.30
2010,10,11,04,49,6.30
2010,10,11,04,50,6.30
2010,10,11,04,51,6.40
2010,10,11,04,52,6.40
2010,10,11,04,53,6.40
2010,10,11,04,54,6.40
2010,10,11,04,55,6.40
2010,10,11,04,56,6.40
2010,10,11,04,57,6.40
2010,10,11,04,58,6.40
2010,10,11,04,59,6.40
2010,10,11,05,00,6.40
2010,10,11,05,01,6.40
2010,10,11,05,02,6.40
2010,10,11,05,03,6.30
2010,10,11,05,04,6.30
2010,10,11,05,05,6.20
2010,10,11,05,06,6.20
2010,10,11,05,07,6.10
2010,10,11,05,08,6.00
2010,10,11,05,09,5.90
2010,10,11,05,10,5.90
2010,10,11,05,11,5.80
2010,10,11,05,12,5.80
2010,10,11,05,13,5.70
2010,10,11,05,14,5.70
2010,10,11,05,15,5.70
2010,10,11,05,16,5.70
2010,10,11,05,17,5.70
2010,10,11,05,18,5.70
2010,10,11,05,19,5.70
2010,10,11,05,20,5.70
2010,10,11,05,21,5.70
2010,10,11,05,22,5.60
2010,10,11,05,23,5.60
2010,10,11,05,24,5.60
2010,10,11,05,25,5.50
2010,10,11,05,26,5.40
2010,10,11,05,27,5.40
2010,10,11,05,28,5.30
2010,10,11,05,29,5.30
2010,10,11,05,30,5.30
2010,10,11,05,31,5.30
2010,10,11,05,32,5.30
2010,10,11,05,33,5.20
2010,10,11,05,34,5.20
2010,10,11,05,35,5.20
2010,10,11,05,36,5.10
2010,10,11,05,37,5.10
2010,10,11,05,38,5.10
2010,10,11,05,39,5.10
2010,10,11,05,40,5.10
2010,10,11,05,41,5.10
2010,10,11,05,42,5.10
2010,10,11,05,43,5.10
2010,10,11,05,44,5.10
2010,10,11,05,45,5.10
2010,10,11,05,46,5.10
2010,10,11,05,47,5.10
2010,10,11,05,48,5.10
2010,10,11,05,49,5.10
2010,10,11,05,50,5.10
2010,10,11,05,51,5.10
2010,10,11,05,52,5.10
2010,10,11,05,53,5.20
2010,10,11,05,54,5.20
2010,10,11,05,55,5.30
2010,10,11,05,56,5.30
2010,10,11,05,57,5.30
2010,10,11,05,58,5.40
2010,10,11,05,59,5.40
2010,10,11,06,00,5.50
2010,10,11,06,01,5.50
2010,10,11,06,02,5.50
2010,10,11,06,03,5.50
2010,10,11,06,04,5.60
2010,10,11,06,05,5.70
2010,10,11,06,06,5.70
2010,10,11,06,07,5.80
2010,10,11,06,08,5.90
2010,10,11,06,09,5.90
2010,10,11,06,10,5.90
2010,10,11,06,11,5.90
2010,10,11,06,12,5.80
2010,10,11,06,13,5.80
2010,10,11,06,14,5.80
2010,10,11,06,15,5.70
2010,10,11,06,16,5.60
2010,10,11,06,17,5.50
2010,10,11,06,18,5.40
2010,10,11,06,19,5.30
2010,10,11,06,20,5.30
2010,10,11,06,21,5.20
2010,10,11,06,22,5.20
2010,10,11,06,23,5.10
2010,10,11,06,24,5.10
2010,10,11,06,25,5.10
2010,10,11,06,26,5.10
2010,10,11,06,27,5.10
2010,10,11,06,28,4.90
2010,10,11,06,29,4.90
2010,10,11,06,30,4.90
2010,10,11,06,31,4.90
2010,10,11,06,32,4.90
2010,10,11,06,33,4.90
2010,10,11,06,34,4.90
2010,10,11,06,35,4.90
2010,10,11,06,36,4.80
2010,10,11,06,37,4.80
2010,10,11,06,38,4.80
2010,10,11,06,39,4.90
2010,10,11,06,40,4.90
2010,10,11,06,41,4.90
2010,10,11,06,42,4.90
2010,10,11,06,43,5.00
2010,10,11,06,44,5.10
2010,10,11,06,45,5.10
2010,10,11,06,46,5.10
2010,10,11,06,47,5.10
2010,10,11,06,48,5.20
2010,10,11,06,49,5.30
2010,10,11,06,50,5.40
2010,10,11,06,51,5.40
2010,10,11,06,52,5.50
2010,10,11,06,53,5.50
2010,10,11,06,54,5.60
2010,10,11,06,55,5.60
2010,10,11,06,56,5.50
2010,10,11,06,57,5.50
2010,10,11,06,58,5.50
2010,10,11,06,59,5.50
2010,10,11,07,00,5.50
2010,10,11,07,01,5.40
2010,10,11,07,02,5.40
2010,10,11,07,03,5.40
2010,10,11,07,04,5.40
2010,10,11,07,05,5.40
2010,10,11,07,06,5.40
2010,10,11,07,07,5.50
2010,10,11,07,08,5.50
2010,10,11,07,09,5.50
2010,10,11,07,10,5.50
2010,10,11,07,11,5.60
2010,10,11,07,12,5.60
2010,10,11,07,13,5.60
2010,10,11,07,14,5.60
2010,10,11,07,15,5.50
2010,10,11,07,16,5.50
2010,10,11,07,17,5.50
2010,10,11,07,18,5.50
2010,10,11,07,19,5.40
2010,10,11,07,20,5.40
2010,10,11,07,21,5.40
2010,10,11,07,22,5.30
2010,10,11,07,23,5.30
2010,10,11,07,24,5.30
2010,10,11,07,25,5.30
2010,10,11,07,26,5.30
2010,10,11,07,27,5.30
2010,10,11,07,28,5.30
2010,10,11,07,29,5.30
2010,10,11,07,30,5.30
2010,10,11,07,31,5.30
2010,10,11,07,32,5.30
2010,10,11,07,33,5.30
2010,10,11,07,34,5.30
2010,10,11,07,35,5.30
2010,10,11,07,36,5.20
2010,10,11,07,37,5.20
2010,10,11,07,38,5.20
2010,10,11,07,39,5.20
2010,10,11,07,40,5.20
2010,10,11,07,41,5.20
2010,10,11,07,42,5.20
2010,10,11,07,43,5.30
2010,10,11,07,44,5.30
2010,10,11,07,45,5.40
2010,10,11,07,46,5.40
2010,10,11,07,47,5.50
2010,10,11,07,48,5.50
2010,10,11,07,49,5.60
2010,10,11,07,50,5.70
2010,10,11,07,51,5.70
2010,10,11,07,52,5.80
2010,10,11,07,53,5.80
2010,10,11,07,54,5.80
2010,10,11,07,55,5.80
2010,10,11,07,56,5.80
2010,10,11,07,57,5.80
2010,10,11,07,58,5.80
2010,10,11,07,59,5.90
2010,10,11,08,00,5.90
2010,10,11,08,01,6.00
2010,10,11,08,02,6.00
2010,10,11,08,03,6.10
2010,10,11,08,04,6.10
2010,10,11,08,05,6.10
2010,10,11,08,06,6.20
2010,10,11,08,07,6.20
2010,10,11,08,08,6.20
2010,10,11,08,09,6.20
2010,10,11,08,10,6.20
2010,10,11,08,11,6.20
2010,10,11,08,12,6.20
2010,10,11,08,13,6.20
2010,10,11,08,14,6.20
2010,10,11,08,15,6.20
2010,10,11,08,16,6.20
2010,10,11,08,17,6.20
2010,10,11,08,18,6.10
2010,10,11,08,19,6.10
2010,10,11,08,20,6.10
2010,10,11,08,21,6.10
2010,10,11,08,22,6.10
2010,10,11,08,23,6.10
2010,10,11,08,24,6.20
2010,10,11,08,25,6.20
2010,10,11,08,26,6.20
2010,10,11,08,27,6.30
2010,10,11,08,28,6.40
2010,10,11,08,29,6.50
2010,10,11,08,30,6.60
2010,10,11,08,31,6.60
2010,10,11,08,32,6.70
2010,10,11,08,33,6.80
2010,10,11,08,34,6.80
2010,10,11,08,35,6.90
2010,10,11,08,36,7.00
2010,10,11,08,37,7.00
2010,10,11,08,38,7.10
2010,10,11,08,39,7.10
2010,10,11,08,40,7.20
2010,10,11,08,41,7.30
2010,10,11,08,42,7.30
2010,10,11,08,43,7.40
2010,10,11,08,44,7.40
2010,10,11,08,45,7.40
2010,10,11,08,46,7.40
2010,10,11,08,47,7.40
2010,10,11,08,48,7.40
2010,10,11,08,49,7.50
2010,10,11,08,50,7.50
2010,10,11,08,51,7.60
2010,10,11,08,52,7.70
2010,10,11,08,53,7.80
2010,10,11,08,54,7.80
2010,10,11,08,55,7.80
2010,10,11,08,56,7.90
2010,10,11,08,57,7.90
2010,10,11,08,58,8.00
2010,10,11,08,59,8.00
2010,10,11,09,00,8.10
2010,10,11,09,01,8.20
2010,10,11,09,02,8.20
2010,10,11,09,03,8.20
2010,10,11,09,04,8.30
2010,10,11,09,05,8.40
2010,10,11,09,06,8.40
2010,10,11,09,07,8.50
2010,10,11,09,08,8.40
2010,10,11,09,09,8.40
2010,10,11,09,10,8.50
2010,10,11,09,11,8.60
2010,10,11,09,12,8.60
2010,10,11,09,13,8.70
2010,10,11,09,14,8.70
2010,10,11,09,15,8.70
2010,10,11,09,16,8.80
2010,10,11,09,17,8.80
2010,10,11,09,18,8.90
2010,10,11,09,19,8.80
2010,10,11,09,20,8.80
2010,10,11,09,21,8.80
2010,10,11,09,22,8.80
2010,10,11,09,23,8.80
2010,10,11,09,24,8.80
2010,10,11,09,25,8.80
2010,10,11,09,26,8.80
2010,10,11,09,27,8.80
2010,10,11,09,28,8.80
2010,10,11,09,29,8.90
2010,10,11,09,30,8.90
2010,10,11,09,31,8.90
2010,10,11,09,32,8.90
2010,10,11,09,33,8.90
2010,10,11,09,34,9.00
2010,10,11,09,35,9.00
2010,10,11,09,36,9.00
2010,10,11,09,37,9.00
2010,10,11,09,38,9.00
2010,10,11,09,39,9.00
2010,10,11,09,40,9.00
2010,10,11,09,41,9.00
2010,10,11,09,42,9.00
2010,10,11,09,43,9.00
2010,10,11,09,44,9.00
2010,10,11,09,45,9.00
2010,10,11,09,46,9.00
2010,10,11,09,47,8.90
2010,10,11,09,48,9.00
2010,10,11,09,49,9.00
2010,10,11,09,50,9.00
2010,10,11,09,51,9.00
2010,10,11,09,52,9.10
2010,10,11,09,53,9.10
2010,10,11,09,54,9.20
2010,10,11,09,55,9.20
2010,10,11,09,56,9.30
2010,10,11,09,57,9.40
2010,10,11,09,58,9.50
2010,10,11,09,59,9.60
2010,10,11,10,00,9.60
2010,10,11,10,01,9.70
2010,10,11,10,02,9.80
2010,10,11,10,03,9.90
2010,10,11,10,04,9.90
2010,10,11,10,05,10.00
2010,10,11,10,06,10.20
2010,10,11,10,07,10.30
2010,10,11,10,08,10.40
2010,10,11,10,09,10.50
2010,10,11,10,10,10.60
2010,10,11,10,11,10.80
2010,10,11,10,12,10.80
2010,10,11,10,13,10.90
2010,10,11,10,14,10.90
2010,10,11,10,15,10.90
2010,10,11,10,16,10.90
2010,10,11,10,17,11.00
2010,10,11,10,18,11.20
2010,10,11,10,19,11.30
2010,10,11,10,20,11.40
2010,10,11,10,21,11.40
2010,10,11,10,22,11.50
2010,10,11,10,23,11.60
2010,10,11,10,24,11.60
2010,10,11,10,25,11.60
2010,10,11,10,26,11.70
2010,10,11,10,27,11.80
2010,10,11,10,28,11.80
2010,10,11,10,29,11.90
2010,10,11,10,30,11.90
2010,10,11,10,31,12.00
2010,10,11,10,32,12.10
2010,10,11,10,33,12.20
2010,10,11,10,34,12.20
2010,10,11,10,35,12.20
2010,10,11,10,36,12.10
2010,10,11,10,37,12.20
2010,10,11,10,38,12.30
2010,10,11,10,39,12.40
2010,10,11,10,40,12.40
2010,10,11,10,41,12.40
2010,10,11,10,42,12.40
2010,10,11,10,43,12.40
2010,10,11,10,44,12.40
2010,10,11,10,45,12.40
2010,10,11,10,46,12.40
2010,10,11,10,47,12.40
2010,10,11,10,48,12.40
2010,10,11,10,49,12.40
2010,10,11,10,50,12.40
2010,10,11,10,51,12.40
2010,10,11,10,52,12.50
2010,10,11,10,53,12.60
2010,10,11,10,54,12.60
2010,10,11,10,55,12.60
2010,10,11,10,56,12.50
2010,10,11,10,57,12.60
2010,10,11,10,58,12.70
2010,10,11,10,59,12.70
2010,10,11,11,00,12.70
2010,10,11,11,01,12.80
2010,10,11,11,02,12.80
2010,10,11,11,03,12.80
2010,10,11,11,04,12.80
2010,10,11,11,05,12.80
2010,10,11,11,06,12.80
2010,10,11,11,07,12.90
2010,10,11,11,08,12.90
2010,10,11,11,09,12.90
2010,10,11,11,10,12.90
2010,10,11,11,11,13.00
2010,10,11,11,12,13.00
2010,10,11,11,13,13.00
2010,10,11,11,14,13.10
2010,10,11,11,15,13.10
2010,10,11,11,16,13.10
2010,10,11,11,17,13.10
2010,10,11,11,18,13.20
2010,10,11,11,19,13.30
2010,10,11,11,20,13.40
2010,10,11,11,21,13.40
2010,10,11,11,22,13.50
2010,10,11,11,23,13.60
2010,10,11,11,24,13.70
2010,10,11,11,25,13.70
2010,10,11,11,26,13.60
2010,10,11,11,27,13.50
2010,10,11,11,28,13.40
2010,10,11,11,29,13.40
2010,10,11,11,30,13.40
2010,10,11,11,31,13.40
2010,10,11,11,32,13.50
2010,10,11,11,33,13.50
2010,10,11,11,34,13.50
2010,10,11,11,35,13.60
2010,10,11,11,36,13.60
2010,10,11,11,37,13.60
2010,10,11,11,38,13.60
2010,10,11,11,39,13.60
2010,10,11,11,40,13.70
2010,10,11,11,41,13.60
2010,10,11,11,42,13.60
2010,10,11,11,43,13.60
2010,10,11,11,44,13.50
2010,10,11,11,45,13.50
2010,10,11,11,46,13.60
2010,10,11,11,47,13.50
2010,10,11,11,48,13.50
2010,10,11,11,49,13.60
2010,10,11,11,50,13.60
2010,10,11,11,51,13.70
2010,10,11,11,52,13.70
2010,10,11,11,53,13.70
2010,10,11,11,54,13.70
2010,10,11,11,55,13.70
2010,10,11,11,56,13.70
2010,10,11,11,57,13.70
2010,10,11,11,58,13.70
2010,10,11,11,59,13.70
2010,10,11,12,00,13.70
2010,10,11,12,01,13.70
2010,10,11,12,02,13.70
2010,10,11,12,03,13.70
2010,10,11,12,04,13.70
2010,10,11,12,05,13.70
2010,10,11,12,06,13.70
2010,10,11,12,07,13.70
2010,10,11,12,08,13.70
2010,10,11,12,09,13.70
2010,10,11,12,10,13.70
2010,10,11,12,11,13.70
2010,10,11,12,12,13.60
2010,10,11,12,13,13.60
2010,10,11,12,14,13.60
2010,10,11,12,15,13.50
2010,10,11,12,16,13.60
2010,10,11,12,17,13.60
2010,10,11,12,18,13.60
2010,10,11,12,19,13.70
2010,10,11,12,20,13.70
2010,10,11,12,21,13.70
2010,10,11,12,22,13.70
2010,10,11,12,23,13.70
2010,10,11,12,24,13.70
2010,10,11,12,25,13.70
2010,10,11,12,26,13.70
2010,10,11,12,27,13.70
2010,10,11,12,28,13.60
2010,10,11,12,29,13.60
2010,10,11,12,30,13.60
2010,10,11,12,31,13.60
2010,10,11,12,32,13.60
2010,10,11,12,33,13.50
2010,10,11,12,34,13.50
2010,10,11,12,35,13.50
2010,10,11,12,36,13.40
2010,10,11,12,37,13.40
2010,10,11,12,38,13.30
2010,10,11,12,39,13.30
2010,10,11,12,40,13.30
2010,10,11,12,41,13.30
2010,10,11,12,42,13.20
2010,10,11,12,43,13.20
2010,10,11,12,44,13.20
2010,10,11,12,45,13.20
2010,10,11,12,46,13.10
2010,10,11,12,47,13.10
2010,10,11,12,48,13.20
2010,10,11,12,49,13.20
2010,10,11,12,50,13.20
2010,10,11,12,51,13.30
2010,10,11,12,52,13.30
2010,10,11,12,53,13.30
2010,10,11,12,54,13.30
2010,10,11,12,55,13.30
2010,10,11,12,56,13.40
2010,10,11,12,57,13.40
2010,10,11,12,58,13.40
2010,10,11,12,59,13.40
2010,10,11,13,00,13.40
2010,10,11,13,01,13.40
2010,10,11,13,02,13.40
2010,10,11,13,03,13.40
2010,10,11,13,04,13.50
2010,10,11,13,05,13.50
2010,10,11,13,06,13.50
2010,10,11,13,07,13.50
2010,10,11,13,08,13.50
2010,10,11,13,09,13.50
2010,10,11,13,10,13.50
2010,10,11,13,11,13.50
2010,10,11,13,12,13.40
2010,10,11,13,13,13.40
2010,10,11,13,14,13.40
2010,10,11,13,15,13.30
2010,10,11,13,16,13.30
2010,10,11,13,17,13.30
2010,10,11,13,18,13.30
2010,10,11,13,19,13.30
2010,10,11,13,20,13.30
2010,10,11,13,21,13.30
2010,10,11,13,22,13.40
2010,10,11,13,23,13.40
2010,10,11,13,24,13.40
2010,10,11,13,25,13.40
2010,10,11,13,26,13.40
2010,10,11,13,27,13.40
2010,10,11,13,28,13.40
2010,10,11,13,29,13.40
2010,10,11,13,30,13.40
2010,10,11,13,31,13.40
2010,10,11,13,32,13.40
2010,10,11,13,33,13.40
2010,10,11,13,34,13.40
2010,10,11,13,35,13.50
2010,10,11,13,36,13.50
2010,10,11,13,37,13.50
2010,10,11,13,38,13.50
2010,10,11,13,39,13.50
2010,10,11,13,40,13.50
2010,10,11,13,41,13.50
2010,10,11,13,42,13.50
2010,10,11,13,43,13.50
2010,10,11,13,44,13.50
2010,10,11,13,45,13.50
2010,10,11,13,46,13.60
2010,10,11,13,47,13.60
2010,10,11,13,48,13.60
2010,10,11,13,49,13.60
2010,10,11,13,50,13.70
2010,10,11,13,51,13.70
2010,10,11,13,52,13.70
2010,10,11,13,53,13.70
2010,10,11,13,54,13.70
2010,10,11,13,55,13.70
2010,10,11,13,56,13.70
2010,10,11,13,57,13.70
2010,10,11,13,58,13.70
2010,10,11,13,59,13.70
2010,10,11,14,00,13.70
2010,10,11,14,01,13.80
2010,10,11,14,02,13.80
2010,10,11,14,03,13.80
2010,10,11,14,04,13.80
2010,10,11,14,05,13.80
2010,10,11,14,06,13.70
2010,10,11,14,07,13.70
2010,10,11,14,08,13.70
2010,10,11,14,09,13.60
2010,10,11,14,10,13.60
2010,10,11,14,11,13.60
2010,10,11,14,12,13.60
2010,10,11,14,13,13.60
2010,10,11,14,14,13.50
2010,10,11,14,15,13.50
2010,10,11,14,16,13.60
2010,10,11,14,17,13.60
2010,10,11,14,18,13.60
2010,10,11,14,19,13.60
2010,10,11,14,20,13.70
2010,10,11,14,21,13.60
2010,10,11,14,22,13.60
2010,10,11,14,23,13.50
2010,10,11,14,24,13.50
2010,10,11,14,25,13.50
2010,10,11,14,26,13.40
2010,10,11,14,27,13.40
2010,10,11,14,28,13.40
2010,10,11,14,29,13.40
2010,10,11,14,30,13.40
2010,10,11,14,31,13.40
2010,10,11,14,32,13.40
2010,10,11,14,33,13.40
2010,10,11,14,34,13.40
2010,10,11,14,35,13.30
2010,10,11,14,36,13.00
2010,10,11,14,37,12.60
2010,10,11,14,38,12.40
2010,10,11,14,39,12.10
2010,10,11,14,40,11.90
2010,10,11,14,41,11.80
2010,10,11,14,42,11.70
2010,10,11,14,43,11.60
2010,10,11,14,44,11.50
2010,10,11,14,45,11.40
2010,10,11,14,46,11.40
2010,10,11,14,47,11.40
2010,10,11,14,48,11.30
2010,10,11,14,49,11.30
2010,10,11,14,50,11.20
2010,10,11,14,51,11.20
2010,10,11,14,52,11.20
2010,10,11,14,53,11.30
2010,10,11,14,54,11.30
2010,10,11,14,55,11.20
2010,10,11,14,56,11.20
2010,10,11,14,57,11.20
2010,10,11,14,58,11.20
2010,10,11,14,59,11.20
2010,10,11,15,00,11.30
2010,10,11,15,01,11.30
2010,10,11,15,02,11.30
2010,10,11,15,03,11.30
2010,10,11,15,04,11.30
2010,10,11,15,05,11.30
2010,10,11,15,06,11.40
2010,10,11,15,07,11.40
2010,10,11,15,08,11.40
2010,10,11,15,09,11.50
2010,10,11,15,10,11.60
2010,10,11,15,11,11.60
2010,10,11,15,12,11.60
2010,10,11,15,13,11.60
2010,10,11,15,14,11.60
2010,10,11,15,15,11.60
2010,10,11,15,16,11.70
2010,10,11,15,17,11.70
2010,10,11,15,18,11.80
2010,10,11,15,19,11.80
2010,10,11,15,20,11.80
2010,10,11,15,21,11.70
2010,10,11,15,22,11.60
2010,10,11,15,23,11.50
2010,10,11,15,24,11.40
2010,10,11,15,25,11.40
2010,10,11,15,26,11.40
2010,10,11,15,27,11.40
2010,10,11,15,28,11.40
2010,10,11,15,29,11.40
2010,10,11,15,30,11.40
2010,10,11,15,31,11.40
2010,10,11,15,32,11.40
2010,10,11,15,33,11.40
2010,10,11,15,34,11.50
2010,10,11,15,35,11.60
2010,10,11,15,36,11.60
2010,10,11,15,37,11.60
2010,10,11,15,38,11.60
2010,10,11,15,39,11.60
2010,10,11,15,40,11.60
2010,10,11,15,41,11.50
2010,10,11,15,42,11.40
2010,10,11,15,43,11.40
2010,10,11,15,44,11.40
2010,10,11,15,45,11.40
2010,10,11,15,46,11.40
2010,10,11,15,47,11.40
2010,10,11,15,48,11.40
2010,10,11,15,49,11.40
2010,10,11,15,50,11.40
2010,10,11,15,51,11.40
2010,10,11,15,52,11.40
2010,10,11,15,53,11.40
2010,10,11,15,54,11.40
2010,10,11,15,55,11.30
2010,10,11,15,56,11.20
2010,10,11,15,57,11.10
2010,10,11,15,58,11.10
2010,10,11,15,59,11.10
2010,10,11,16,00,11.10
2010,10,11,16,01,11.20
2010,10,11,16,02,11.30
2010,10,11,16,03,11.30
2010,10,11,16,04,11.30
2010,10,11,16,05,11.30
2010,10,11,16,06,11.30
2010,10,11,16,07,11.30
2010,10,11,16,08,11.30
2010,10,11,16,09,11.30
2010,10,11,16,10,11.40
2010,10,11,16,11,11.40
2010,10,11,16,12,11.40
2010,10,11,16,13,11.40
2010,10,11,16,14,11.40
2010,10,11,16,15,11.40
2010,10,11,16,16,11.40
2010,10,11,16,17,11.40
2010,10,11,16,18,11.30
2010,10,11,16,19,11.30
2010,10,11,16,20,11.30
2010,10,11,16,21,11.20
2010,10,11,16,22,11.20
2010,10,11,16,23,11.20
2010,10,11,16,24,11.20
2010,10,11,16,25,11.20
2010,10,11,16,26,11.20
2010,10,11,16,27,11.20
2010,10,11,16,28,11.20
2010,10,11,16,29,11.20
2010,10,11,16,30,11.20
2010,10,11,16,31,11.10
2010,10,11,16,32,11.10
2010,10,11,16,33,11.10
2010,10,11,16,34,11.10
2010,10,11,16,35,11.10
2010,10,11,16,36,11.10
2010,10,11,16,37,11.10
2010,10,11,16,38,11.10
2010,10,11,16,39,11.00
2010,10,11,16,40,10.90
2010,10,11,16,41,10.90
2010,10,11,16,42,10.90
2010,10,11,16,43,10.90
2010,10,11,16,44,10.90
2010,10,11,16,45,10.90
2010,10,11,16,46,10.90
2010,10,11,16,47,11.00
2010,10,11,16,48,11.00
2010,10,11,16,49,10.90
2010,10,11,16,50,10.90
2010,10,11,16,51,10.90
2010,10,11,16,52,10.90
2010,10,11,16,53,10.90
2010,10,11,16,54,10.90
2010,10,11,16,55,10.90
2010,10,11,16,56,10.90
2010,10,11,16,57,11.00
2010,10,11,16,58,11.10
2010,10,11,16,59,11.10
2010,10,11,17,00,11.10
2010,10,11,17,01,11.10
2010,10,11,17,02,11.10
2010,10,11,17,03,11.10
2010,10,11,17,04,11.10
2010,10,11,17,05,11.10
2010,10,11,17,06,11.10
2010,10,11,17,07,11.10
2010,10,11,17,08,11.10
2010,10,11,17,09,11.10
2010,10,11,17,10,11.00
2010,10,11,17,11,10.90
2010,10,11,17,12,10.90
2010,10,11,17,13,10.90
2010,10,11,17,14,10.90
2010,10,11,17,15,10.90
2010,10,11,17,16,10.90
2010,10,11,17,17,10.90
2010,10,11,17,18,10.90
2010,10,11,17,19,10.90
2010,10,11,17,20,10.90
2010,10,11,17,21,10.90
2010,10,11,17,22,10.90
2010,10,11,17,23,10.90
2010,10,11,17,24,10.80
2010,10,11,17,25,10.80
2010,10,11,17,26,10.70
2010,10,11,17,27,10.70
2010,10,11,17,28,10.70
2010,10,11,17,29,10.70
2010,10,11,17,30,10.70
2010,10,11,17,31,10.60
2010,10,11,17,32,10.60
2010,10,11,17,33,10.60
2010,10,11,17,34,10.60
2010,10,11,17,35,10.60
2010,10,11,17,36,10.60
2010,10,11,17,37,10.60
2010,10,11,17,38,10.60
2010,10,11,17,39,10.60
2010,10,11,17,40,10.60
2010,10,11,17,41,10.60
2010,10,11,17,42,10.60
2010,10,11,17,43,10.60
2010,10,11,17,44,10.60
2010,10,11,17,45,10.40